START_TIME,STEP,MOV.,M6,t_acc.,M7,t_acc.,M19,t_acc.,H36,t_acc.
1979-08-02 00:00:25.950 ,0,0,0.,12.0,0.,12.0,0.,12.0,0.,12.0
1979-08-02 00:00:37.950 ,0,0,0.,12.0,0.,12.0,0.,12.0,0.,12.0
1979-08-02 00:00:49.950 ,1,1,0.,12.0,0.,12.0,0.,12.0,0.,12.0
1979-08-02 00:01:01.950 ,1,1,0.,12.0,0.,12.0,0.,12.0,0.,12.0
1979-08-02 00:01:13.950 ,1,0,0.,12.0,0.,12.0,0.,12.0,0.,12.0
1979-08-02 00:01:25.950 ,1,0,0.,12.0,0.,12.0,0.,12.0,0.,12.0
1979-08-02 00:01:37.950 ,2,1,0.,12.0,0.,12.0,0.,12.0,0.,12.0
1979-08-02 00:01:49.950 ,2,1,0.,12.0,0.,12.0,0.,12.0,0.,12.0
1979-08-02 00:02:01.950 ,2,0,0.,12.0,0.,12.0,0.,12.0,0.,12.0
1979-08-02 00:02:13.950 ,2,0,0.,12.0,0.,12.0,0.,12.0,0.,12.0
1979-08-02 00:02:25.950 ,3,1,0.,12.0,0.,12.0,0.,12.0,0.,12.0
1979-08-02 00:02:37.950 ,3,1,0.,12.0,0.,12.0,0.,12.0,0.,12.0
1979-08-02 00:02:49.950 ,3,0,0.,12.0,0.,12.0,0.,12.0,0.,12.0
1979-08-02 00:03:01.950 ,3,0,0.,12.0,0.,12.0,0.,12.0,0.,12.0
1979-08-02 00:03:13.950 ,4,1,0.,12.0,0.,12.0,0.,12.0,0.,12.0
1979-08-02 00:03:25.950 ,4,1,0.,12.0,0.,12.0,0.,12.0,0.,12.0
1979-08-02 00:03:37.950 ,4,0,0.,12.0,0.,12.0,0.,12.0,0.,12.0
1979-08-02 00:03:49.950 ,4,0,0.,12.0,0.,12.0,0.,12.0,0.,12.0
1979-08-02 00:04:01.950 ,5,1,0.,12.0,0.,12.0,0.,12.0,0.,12.0
1979-08-02 00:04:13.950 ,5,1,0.,12.0,0.,12.0,0.,12.0,0.,12.0
1979-08-02 00:04:25.950 ,5,0,0.,12.0,0.,12.0,0.,12.0,0.,12.0
1979-08-02 00:04:37.950 ,5,0,0.,12.0,0.,12.0,0.,12.0,0.,12.0
1979-08-02 00:04:49.950 ,6,1,0.,12.0,0.,12.0,0.,12.0,0.,12.0
1979-08-02 00:05:01.950 ,6,1,0.,12.0,0.,12.0,0.,12.0,0.,12.0
1979-08-02 00:05:13.950 ,6,0,0.,12.0,0.,12.0,0.,12.0,0.,12.0
1979-08-02 00:05:25.950 ,6,0,0.,12.0,0.,12.0,0.,12.0,0.,12.0
1979-08-02 00:05:37.950 ,7,1,0.,12.0,0.,12.0,0.,12.0,0.,12.0
1979-08-02 00:05:49.950 ,7,1,0.,12.0,0.,12.0,0.,12.0,0.,12.0
1979-08-02 00:06:01.950 ,7,0,0.,12.0,0.,12.0,0.,12.0,0.,12.0
1979-08-02 00:06:13.950 ,7,0,0.,12.0,0.,12.0,0.,12.0,0.,12.0
1979-08-02 00:06:25.950 ,7,1,0.,12.0,0.,12.0,0.,12.0,0.,12.0
1979-08-02 00:06:37.950 ,7,1,0.,12.0,0.,12.0,0.,12.0,0.,12.0
1979-08-02 00:06:49.950 ,7,0,0.,12.0,0.,12.0,0.,12.0,0.,12.0
1979-08-02 00:07:01.950 ,7,0,0.,12.0,0.,12.0,0.,12.0,0.,12.0
1979-08-02 00:07:13.950 ,6,1,0.,12.0,0.,12.0,0.,12.0,0.,12.0
1979-08-02 00:07:25.950 ,6,1,0.,12.0,0.,12.0,0.,12.0,0.,12.0
1979-08-02 00:07:37.950 ,6,0,0.,12.0,0.,12.0,0.,12.0,0.,12.0
1979-08-02 00:07:49.950 ,6,0,0.,12.0,0.,12.0,0.,12.0,0.,12.0
1979-08-02 00:08:01.950 ,5,1,0.,12.0,0.,12.0,0.,12.0,0.,12.0
1979-08-02 00:08:13.950 ,5,1,0.,12.0,0.,12.0,0.,12.0,0.,12.0
1979-08-02 00:08:25.950 ,5,0,0.,12.0,0.,12.0,0.,12.0,0.,12.0
1979-08-02 00:08:37.950 ,5,0,0.,12.0,0.,12.0,0.,12.0,0.,12.0
1979-08-02 00:08:49.950 ,4,1,0.,12.0,0.,12.0,0.,12.0,0.,12.0
1979-08-02 00:09:01.950 ,4,1,0.,12.0,0.,12.0,0.,12.0,0.,12.0
1979-08-02 00:09:13.950 ,4,0,0.,12.0,0.,12.0,0.,12.0,0.,12.0
1979-08-02 00:09:25.950 ,4,0,0.,12.0,0.,12.0,0.,12.0,0.,12.0
1979-08-02 00:09:37.950 ,3,1,0.,12.0,0.,12.0,0.,12.0,0.,12.0
1979-08-02 00:09:49.950 ,3,1,0.,12.0,0.,12.0,0.,12.0,0.,12.0
1979-08-02 00:10:01.950 ,3,0,0.,12.0,0.,12.0,0.,12.0,0.,12.0
1979-08-02 00:10:13.950 ,3,0,0.,12.0,0.,12.0,0.,12.0,0.,12.0
1979-08-02 00:10:25.950 ,2,1,0.,12.0,0.,12.0,0.,12.0,0.,12.0
1979-08-02 00:10:37.950 ,2,1,0.,12.0,0.,12.0,0.,12.0,0.,12.0
1979-08-02 00:10:49.950 ,2,0,0.,12.0,0.,12.0,0.,12.0,0.,12.0
1979-08-02 00:11:01.950 ,2,0,0.,12.0,0.,12.0,0.,12.0,0.,12.0
1979-08-02 00:11:13.950 ,1,1,0.,12.0,0.,12.0,0.,12.0,0.,12.0
1979-08-02 00:11:25.950 ,1,1,0.,12.0,0.,12.0,0.,12.0,0.,12.0
1979-08-02 00:11:37.950 ,1,0,0.,12.0,0.,12.0,0.,12.0,0.,12.0
1979-08-02 00:11:49.950 ,1,0,0.,12.0,0.,12.0,0.,12.0,0.,12.0
1979-08-02 00:12:01.950 ,0,1,0.,12.0,0.,12.0,0.,12.0,0.,12.0
1979-08-02 00:12:13.950 ,0,1,0.,12.0,0.,12.0,0.,12.0,0.,12.0
1979-08-02 00:12:25.950 ,0,0,0.,12.0,0.,12.0,0.,12.0,0.,12.0
1979-08-02 00:12:37.950 ,0,0,0.,12.0,0.,12.0,0.,12.0,0.,12.0
1979-08-02 00:12:49.950 ,0,1,0.,12.0,0.,12.0,0.,12.0,0.,12.0
1979-08-02 00:13:01.950 ,0,1,0.,12.0,0.,12.0,0.,12.0,0.,12.0
1979-08-02 00:13:13.950 ,0,0,0.,12.0,0.,12.0,0.,12.0,0.,12.0
1979-08-02 00:13:25.950 ,0,0,0.,12.0,0.,12.0,0.,12.0,0.,12.0
1979-08-02 00:13:37.950 ,1,1,0.,12.0,0.,12.0,0.,12.0,0.,12.0
1979-08-02 00:13:49.950 ,1,1,0.,12.0,0.,12.0,0.,12.0,0.,12.0
1979-08-02 00:14:01.950 ,1,0,0.,12.0,0.,12.0,0.,12.0,0.,12.0
1979-08-02 00:14:13.950 ,1,0,0.,12.0,0.,12.0,0.,12.0,0.,12.0
1979-08-02 00:14:25.950 ,2,1,0.,12.0,0.,12.0,0.,12.0,0.,12.0
1979-08-02 00:14:37.950 ,2,1,0.,12.0,0.,12.0,0.,12.0,0.,12.0
1979-08-02 00:14:49.950 ,2,0,0.,12.0,0.,12.0,0.,12.0,0.,12.0
1979-08-02 00:15:01.950 ,2,0,0.,12.0,0.,12.0,0.,12.0,0.,12.0
1979-08-02 00:15:13.950 ,3,1,0.,12.0,0.,12.0,0.,12.0,0.,12.0
1979-08-02 00:15:25.950 ,3,1,0.,12.0,0.,12.0,0.,12.0,0.,12.0
1979-08-02 00:15:37.950 ,3,0,0.,12.0,0.,12.0,0.,12.0,0.,12.0
1979-08-02 00:15:49.950 ,3,0,0.,12.0,0.,12.0,0.,12.0,0.,12.0
1979-08-02 00:16:01.950 ,4,1,0.,12.0,0.,12.0,0.,12.0,0.,12.0
1979-08-02 00:16:13.950 ,4,1,0.,12.0,0.,12.0,0.,12.0,0.,12.0
1979-08-02 00:16:25.950 ,4,0,0.,12.0,0.,12.0,0.,12.0,0.,12.0
1979-08-02 00:16:37.950 ,4,0,0.,12.0,0.,12.0,0.,12.0,0.,12.0
1979-08-02 00:16:49.950 ,5,1,0.,12.0,0.,12.0,0.,12.0,0.,12.0
1979-08-02 00:17:01.950 ,5,1,0.,12.0,0.,12.0,0.,12.0,0.,12.0
1979-08-02 00:17:13.950 ,5,0,0.,12.0,0.,12.0,0.,12.0,0.,12.0
1979-08-02 00:17:25.950 ,5,0,0.,12.0,0.,12.0,0.,12.0,0.,12.0
1979-08-02 00:17:37.950 ,6,1,0.,12.0,0.,12.0,0.,12.0,0.,12.0
1979-08-02 00:17:49.950 ,6,1,0.,12.0,0.,12.0,0.,12.0,0.,12.0
1979-08-02 00:18:01.950 ,6,0,0.,12.0,0.,12.0,0.,12.0,0.,12.0
1979-08-02 00:18:13.950 ,6,0,0.,12.0,0.,12.0,0.,12.0,0.,12.0
1979-08-02 00:18:25.950 ,7,0,0.,12.0,0.,12.0,0.,12.0,0.,12.0
1979-08-02 00:18:37.950 ,7,0,0.,12.0,0.,12.0,0.,12.0,0.,12.0
1979-08-02 00:18:49.950 ,7,0,0.,12.0,0.,12.0,0.,12.0,0.,12.0
1979-08-02 00:19:01.950 ,7,0,0.,12.0,0.,12.0,0.,12.0,0.,12.0
1979-08-02 00:19:13.950 ,4,1,0.,12.0,0.,12.0,0.,12.0,0.,12.0
1979-08-02 00:19:25.950 ,4,1,0.,12.0,0.,12.0,0.,12.0,0.,12.0
1979-08-02 00:19:37.950 ,0,1,0.,12.0,0.,12.0,0.,12.0,0.,12.0
1979-08-02 00:19:49.950 ,0,1,0.,12.0,0.,12.0,0.,12.0,0.,12.0
1979-08-02 00:20:01.950 ,3,1,0.,12.0,0.,12.0,0.,12.0,0.,12.0
1979-08-02 00:20:13.950 ,3,1,0.,12.0,0.,12.0,0.,12.0,0.,12.0
1979-08-02 00:20:25.950 ,7,1,0.,12.0,0.,12.0,0.,12.0,0.,12.0
1979-08-02 00:20:37.950 ,7,1,0.,12.0,0.,12.0,0.,12.0,0.,12.0
1979-08-02 00:20:49.950 ,4,1,0.,12.0,0.,12.0,0.,12.0,0.,12.0
1979-08-02 00:21:01.950 ,4,1,0.,12.0,0.,12.0,0.,12.0,0.,12.0
1979-08-02 00:21:13.950 ,0,1,0.,12.0,0.,12.0,0.,12.0,0.,12.0
1979-08-02 00:21:25.950 ,0,1,0.,12.0,0.,12.0,0.,12.0,0.,12.0
1979-08-02 00:21:37.950 ,3,1,0.,12.0,0.,12.0,0.,12.0,0.,12.0
1979-08-02 00:21:49.950 ,3,1,0.,12.0,0.,12.0,0.,12.0,0.,12.0
1979-08-02 00:22:01.950 ,7,1,0.,12.0,0.,12.0,0.,12.0,0.,12.0
1979-08-02 00:22:13.950 ,7,1,0.,12.0,0.,12.0,0.,12.0,0.,12.0
1979-08-02 00:22:25.950 ,4,1,0.,12.0,0.,12.0,0.,12.0,0.,12.0
1979-08-02 00:22:37.950 ,4,1,0.,12.0,0.,12.0,0.,12.0,0.,12.0
1979-08-02 00:22:49.950 ,0,1,0.,12.0,0.,12.0,0.,12.0,0.,12.0
1979-08-02 00:23:01.950 ,0,1,0.,12.0,0.,12.0,0.,12.0,0.,12.0
1979-08-02 00:23:13.950 ,3,1,0.,12.0,0.,12.0,0.,12.0,0.,12.0
1979-08-02 00:23:25.950 ,3,1,0.,12.0,0.,12.0,0.,12.0,0.,12.0
1979-08-02 00:23:37.950 ,7,1,0.,12.0,0.,12.0,0.,12.0,0.,12.0
1979-08-02 00:23:49.950 ,7,1,0.,12.0,0.,12.0,0.,12.0,0.,12.0
1979-08-02 00:24:01.950 ,4,1,0.,12.0,0.,12.0,0.,12.0,0.,12.0
1979-08-02 00:24:13.950 ,4,1,0.,12.0,0.,12.0,0.,12.0,0.,12.0
1979-08-02 00:24:25.950 ,0,1,0.,12.0,0.,12.0,0.,12.0,0.,12.0
1979-08-02 00:24:37.950 ,0,1,0.,12.0,0.,12.0,0.,12.0,0.,12.0
1979-08-02 00:24:49.950 ,3,1,0.,12.0,0.,12.0,0.,12.0,0.,12.0
1979-08-02 00:25:01.950 ,3,1,0.,12.0,0.,12.0,0.,12.0,0.,12.0
1979-08-02 00:25:13.950 ,7,1,0.,12.0,0.,12.0,0.,12.0,0.,12.0
1979-08-02 00:25:25.950 ,7,1,0.,12.0,0.,12.0,0.,12.0,0.,12.0
1979-08-02 00:25:37.950 ,4,1,0.,12.0,0.,12.0,0.,12.0,0.,12.0
1979-08-02 00:25:49.950 ,4,1,0.,12.0,0.,12.0,0.,12.0,0.,12.0
1979-08-02 00:26:01.950 ,0,1,0.,12.0,0.,12.0,0.,12.0,0.,12.0
1979-08-02 00:26:13.950 ,0,1,0.,12.0,0.,12.0,0.,12.0,0.,12.0
1979-08-02 00:26:25.950 ,3,1,0.,12.0,0.,12.0,0.,12.0,0.,12.0
1979-08-02 00:26:37.950 ,3,1,0.,12.0,0.,12.0,0.,12.0,0.,12.0
1979-08-02 00:26:49.950 ,7,1,0.,12.0,0.,12.0,0.,12.0,0.,12.0
1979-08-02 00:27:01.950 ,7,1,0.,12.0,0.,12.0,0.,12.0,0.,12.0
1979-08-02 00:27:13.950 ,4,1,0.,12.0,0.,12.0,0.,12.0,0.,12.0
1979-08-02 00:27:25.950 ,4,1,0.,12.0,0.,12.0,0.,12.0,0.,12.0
1979-08-02 00:27:37.950 ,0,1,0.,12.0,0.,12.0,0.,12.0,0.,12.0
1979-08-02 00:27:49.950 ,0,1,0.,12.0,0.,12.0,0.,12.0,0.,12.0
1979-08-02 00:28:01.950 ,3,1,0.,12.0,0.,12.0,0.,12.0,0.,12.0
1979-08-02 00:28:13.950 ,3,1,0.,12.0,0.,12.0,0.,12.0,0.,12.0
1979-08-02 00:28:25.950 ,7,1,0.,12.0,0.,12.0,0.,12.0,0.,12.0
1979-08-02 00:28:37.950 ,7,1,0.,12.0,0.,12.0,0.,12.0,0.,12.0
1979-08-02 00:28:49.950 ,4,1,0.,12.0,0.,12.0,0.,12.0,0.,12.0
1979-08-02 00:29:01.950 ,4,1,0.,12.0,0.,12.0,0.,12.0,0.,12.0
1979-08-02 00:29:13.950 ,0,1,0.,12.0,0.,12.0,0.,12.0,0.,12.0
1979-08-02 00:29:25.950 ,0,1,0.,12.0,0.,12.0,0.,12.0,0.,12.0
1979-08-02 00:29:37.950 ,0,0,0.,12.0,0.,12.0,0.,12.0,0.,12.0
1979-08-02 00:29:49.950 ,0,0,0.,12.0,0.,12.0,0.,12.0,0.,12.0
1979-08-02 00:30:01.950 ,0,0,0.,12.0,0.,12.0,0.,12.0,0.,12.0
1979-08-02 00:30:13.950 ,0,0,0.,12.0,0.,12.0,0.,12.0,0.,12.0
1979-08-02 00:30:25.950 ,5,1,0.,12.0,0.,12.0,0.,12.0,0.,12.0
1979-08-02 00:30:37.950 ,5,1,0.,12.0,0.,12.0,0.,12.0,0.,12.0
1979-08-02 00:30:49.950 ,5,0,0.,12.0,0.,12.0,0.,12.0,0.,12.0
1979-08-02 00:31:01.950 ,5,0,0.,12.0,0.,12.0,0.,12.0,0.,12.0
1979-08-02 00:31:13.950 ,4,1,0.,12.0,0.,12.0,0.,12.0,0.,12.0
1979-08-02 00:31:25.950 ,4,1,0.,12.0,0.,12.0,0.,12.0,0.,12.0
1979-08-02 00:31:37.950 ,4,0,0.,12.0,0.,12.0,0.,12.0,0.,12.0
1979-08-02 00:31:49.950 ,4,0,0.,12.0,0.,12.0,0.,12.0,0.,12.0
1979-08-02 00:32:01.950 ,3,1,0.,12.0,0.,12.0,0.,12.0,0.,12.0
1979-08-02 00:32:13.950 ,3,1,0.,12.0,0.,12.0,0.,12.0,0.,12.0
1979-08-02 00:32:25.950 ,3,0,0.,12.0,0.,12.0,0.,12.0,0.,12.0
1979-08-02 00:32:37.950 ,3,0,0.,12.0,0.,12.0,0.,12.0,0.,12.0
1979-08-02 00:32:49.950 ,2,1,0.,12.0,0.,12.0,0.,12.0,0.,12.0
1979-08-02 00:33:01.950 ,2,1,0.,12.0,0.,12.0,0.,12.0,0.,12.0
1979-08-02 00:33:13.950 ,2,0,0.,12.0,0.,12.0,0.,12.0,0.,12.0
1979-08-02 00:33:25.950 ,2,0,0.,12.0,0.,12.0,0.,12.0,0.,12.0
1979-08-02 00:33:37.950 ,1,1,0.,12.0,0.,12.0,0.,12.0,0.,12.0
1979-08-02 00:33:49.950 ,1,1,0.,12.0,0.,12.0,0.,12.0,0.,12.0
1979-08-02 00:34:01.950 ,1,0,0.,12.0,0.,12.0,0.,12.0,0.,12.0
1979-08-02 00:34:13.950 ,1,0,0.,12.0,0.,12.0,0.,12.0,0.,12.0
1979-08-02 00:34:25.950 ,0,1,0.,12.0,0.,12.0,0.,12.0,0.,12.0
1979-08-02 00:34:37.950 ,0,1,0.,12.0,0.,12.0,0.,12.0,0.,12.0
1979-08-02 00:34:49.950 ,0,0,0.,12.0,0.,12.0,0.,12.0,0.,12.0
1979-08-02 00:35:01.950 ,0,0,0.,12.0,0.,12.0,0.,12.0,0.,12.0
1979-08-02 00:35:13.950 ,0,1,0.,12.0,0.,12.0,0.,12.0,0.,12.0
1979-08-02 00:35:25.950 ,0,1,0.,12.0,0.,12.0,0.,12.0,0.,12.0
1979-08-02 00:35:37.950 ,0,0,0.,12.0,0.,12.0,0.,12.0,0.,12.0
1979-08-02 00:35:49.950 ,0,0,0.,12.0,0.,12.0,0.,12.0,0.,12.0
1979-08-02 00:36:01.950 ,1,1,0.,12.0,0.,12.0,0.,12.0,0.,12.0
1979-08-02 00:36:13.950 ,1,1,0.,12.0,0.,12.0,0.,12.0,0.,12.0
1979-08-02 00:36:25.950 ,1,0,0.,12.0,0.,12.0,0.,12.0,0.,12.0
1979-08-02 00:36:37.950 ,1,0,0.,12.0,0.,12.0,0.,12.0,0.,12.0
1979-08-02 00:36:49.950 ,2,1,0.,12.0,0.,12.0,0.,12.0,0.,12.0
1979-08-02 00:37:01.950 ,2,1,0.,12.0,0.,12.0,0.,12.0,0.,12.0
1979-08-02 00:37:13.950 ,2,0,0.,12.0,0.,12.0,0.,12.0,0.,12.0
1979-08-02 00:37:25.950 ,2,0,0.,12.0,0.,12.0,0.,12.0,0.,12.0
1979-08-02 00:38:25.950 ,4,1,0.,12.0,0.,12.0,0.,12.0,0.,12.0
1979-08-02 00:38:37.950 ,4,1,0.,12.0,0.,12.0,0.,12.0,0.,12.0
1979-08-02 00:38:49.950 ,4,0,0.,12.0,0.,12.0,0.,12.0,0.,12.0
1979-08-02 00:39:01.950 ,4,0,0.,12.0,0.,12.0,0.,12.0,0.,12.0
1979-08-02 00:39:13.950 ,5,1,0.,12.0,0.,12.0,0.,12.0,0.,12.0
1979-08-02 00:39:25.950 ,5,1,0.,12.0,0.,12.0,0.,12.0,0.,12.0
1979-08-02 00:39:37.950 ,5,0,0.,12.0,0.,12.0,0.,12.0,0.,12.0
1979-08-02 00:39:49.950 ,5,0,0.,12.0,0.,12.0,0.,12.0,0.,12.0
1979-08-02 00:40:01.950 ,6,1,0.,12.0,0.,12.0,0.,12.0,0.,12.0
1979-08-02 00:40:13.950 ,6,1,0.,12.0,0.,12.0,0.,12.0,0.,12.0
1979-08-02 00:40:25.950 ,6,0,0.,12.0,0.,12.0,0.,12.0,0.,12.0
1979-08-02 00:40:37.950 ,6,0,0.,12.0,0.,12.0,0.,12.0,0.,12.0
1979-08-02 00:40:49.950 ,7,1,0.,12.0,0.,12.0,0.,12.0,0.,12.0
1979-08-02 00:41:01.950 ,7,1,0.,12.0,0.,12.0,0.,12.0,0.,12.0
1979-08-02 00:41:13.950 ,7,0,0.,12.0,0.,12.0,0.,12.0,0.,12.0
1979-08-02 00:41:25.950 ,7,0,0.,12.0,0.,12.0,0.,12.0,0.,12.0
1979-08-02 00:41:37.950 ,7,1,0.,12.0,0.,12.0,0.,12.0,0.,12.0
1979-08-02 00:41:49.950 ,7,1,0.,12.0,0.,12.0,0.,12.0,0.,12.0
1979-08-02 00:42:01.950 ,7,0,0.,12.0,0.,12.0,0.,12.0,0.,12.0
1979-08-02 00:42:13.950 ,7,0,0.,12.0,0.,12.0,0.,12.0,0.,12.0
1979-08-02 00:43:13.950 ,5,1,0.,12.0,0.,12.0,0.,12.0,0.,12.0
1979-08-02 00:43:25.950 ,5,1,0.,12.0,0.,12.0,0.,12.0,0.,12.0
1979-08-02 00:43:37.950 ,5,0,0.,12.0,0.,12.0,0.,12.0,0.,12.0
1979-08-02 00:43:49.950 ,5,0,0.,12.0,0.,12.0,0.,12.0,0.,12.0
1979-08-02 00:44:01.950 ,4,1,0.,12.0,0.,12.0,0.,12.0,0.,12.0
1979-08-02 00:44:13.950 ,4,1,0.,12.0,0.,12.0,0.,12.0,0.,12.0
1979-08-02 00:44:25.950 ,4,0,0.,12.0,0.,12.0,0.,12.0,0.,12.0
1979-08-02 00:44:37.950 ,4,0,0.,12.0,0.,12.0,0.,12.0,0.,12.0
1979-08-02 00:44:49.950 ,3,1,0.,12.0,0.,12.0,0.,12.0,0.,12.0
1979-08-02 00:45:01.950 ,3,1,0.,12.0,0.,12.0,0.,12.0,0.,12.0
1979-08-02 00:45:13.950 ,3,0,0.,12.0,0.,12.0,0.,12.0,0.,12.0
1979-08-02 00:45:25.950 ,3,0,0.,12.0,0.,12.0,0.,12.0,0.,12.0
1979-08-02 00:45:37.950 ,2,1,0.,12.0,0.,12.0,0.,12.0,0.,12.0
1979-08-02 00:45:49.950 ,2,1,0.,12.0,0.,12.0,0.,12.0,0.,12.0
1979-08-02 00:46:01.950 ,2,0,0.,12.0,0.,12.0,0.,12.0,0.,12.0
1979-08-02 00:46:13.950 ,2,0,0.,12.0,0.,12.0,0.,12.0,0.,12.0
1979-08-02 00:46:25.950 ,1,1,0.,12.0,0.,12.0,0.,12.0,0.,12.0
1979-08-02 00:46:37.950 ,1,1,0.,12.0,0.,12.0,0.,12.0,0.,12.0
1979-08-02 00:46:49.950 ,1,0,0.,12.0,0.,12.0,0.,12.0,0.,12.0
1979-08-02 00:47:01.950 ,1,0,0.,12.0,0.,12.0,0.,12.0,0.,12.0
1979-08-02 00:47:13.950 ,0,1,0.,12.0,0.,12.0,0.,12.0,0.,12.0
1979-08-02 00:47:25.950 ,0,1,0.,12.0,0.,12.0,0.,12.0,0.,12.0
1979-08-02 00:47:37.950 ,0,0,0.,12.0,0.,12.0,0.,12.0,0.,12.0
1979-08-02 00:47:49.950 ,0,0,0.,12.0,0.,12.0,0.,12.0,0.,12.0
1979-08-02 00:48:01.950 ,0,1,0.,12.0,0.,12.0,0.,12.0,0.,12.0
1979-08-02 00:48:13.950 ,0,1,0.,12.0,0.,12.0,0.,12.0,0.,12.0
1979-08-02 00:48:25.950 ,0,0,0.,12.0,0.,12.0,0.,12.0,1.,12.0
1979-08-02 00:48:37.950 ,0,0,0.,12.0,0.,12.0,0.,12.0,0.,12.0
1979-08-02 00:48:49.950 ,1,1,0.,12.0,0.,12.0,0.,12.0,0.,12.0
1979-08-02 00:49:01.950 ,1,1,0.,12.0,0.,12.0,0.,12.0,0.,12.0
1979-08-02 00:49:13.950 ,1,0,0.,12.0,0.,12.0,0.,12.0,0.,12.0
1979-08-02 00:49:25.950 ,1,0,0.,12.0,0.,12.0,0.,12.0,0.,12.0
1979-08-02 00:49:37.950 ,2,1,0.,12.0,0.,12.0,0.,12.0,0.,12.0
1979-08-02 00:49:49.950 ,2,1,0.,12.0,0.,12.0,0.,12.0,0.,12.0
1979-08-02 00:50:01.950 ,2,0,0.,12.0,0.,12.0,0.,12.0,0.,12.0
1979-08-02 00:50:13.950 ,2,0,0.,12.0,0.,12.0,0.,12.0,0.,12.0
1979-08-02 00:50:25.950 ,3,1,0.,12.0,0.,12.0,0.,12.0,0.,12.0
1979-08-02 00:50:37.950 ,3,1,0.,12.0,0.,12.0,0.,12.0,0.,12.0
1979-08-02 00:50:49.950 ,3,0,0.,12.0,0.,12.0,0.,12.0,0.,12.0
1979-08-02 00:51:01.950 ,3,0,0.,12.0,0.,12.0,0.,12.0,0.,12.0
1979-08-02 00:51:13.950 ,4,1,0.,12.0,0.,12.0,0.,12.0,0.,12.0
1979-08-02 00:51:25.950 ,4,1,0.,12.0,0.,12.0,0.,12.0,0.,12.0
1979-08-02 00:51:37.950 ,4,0,0.,12.0,0.,12.0,0.,12.0,0.,12.0
1979-08-02 00:51:49.950 ,4,0,0.,12.0,0.,12.0,0.,12.0,0.,12.0
1979-08-02 00:52:01.950 ,5,1,0.,12.0,0.,12.0,0.,12.0,0.,12.0
1979-08-02 00:52:13.950 ,5,1,0.,12.0,0.,12.0,0.,12.0,0.,12.0
1979-08-02 00:52:25.950 ,5,0,0.,12.0,0.,12.0,0.,12.0,0.,12.0
1979-08-02 00:52:37.950 ,5,0,0.,12.0,0.,12.0,0.,12.0,0.,12.0
1979-08-02 00:52:49.950 ,6,1,0.,12.0,0.,12.0,0.,12.0,0.,12.0
1979-08-02 00:53:01.950 ,6,1,0.,12.0,0.,12.0,0.,12.0,0.,12.0
1979-08-02 00:53:13.950 ,6,0,0.,12.0,0.,12.0,0.,12.0,0.,12.0
1979-08-02 00:53:25.950 ,6,0,0.,12.0,0.,12.0,0.,12.0,0.,12.0
1979-08-02 00:53:37.950 ,7,1,0.,12.0,0.,12.0,0.,12.0,0.,12.0
1979-08-02 00:53:49.950 ,7,1,0.,12.0,0.,12.0,0.,12.0,0.,12.0
1979-08-02 00:54:01.950 ,7,0,0.,12.0,0.,12.0,0.,12.0,0.,12.0
1979-08-02 00:54:13.950 ,7,0,0.,12.0,0.,12.0,0.,12.0,0.,12.0
1979-08-02 00:54:25.950 ,7,1,0.,12.0,0.,12.0,0.,12.0,0.,12.0
1979-08-02 00:54:37.950 ,7,1,0.,12.0,0.,12.0,0.,12.0,0.,12.0
1979-08-02 00:54:49.950 ,7,0,0.,12.0,0.,12.0,0.,12.0,0.,12.0
1979-08-02 00:55:01.950 ,7,0,0.,12.0,0.,12.0,0.,12.0,0.,12.0
1979-08-02 00:55:13.950 ,6,1,0.,12.0,0.,12.0,0.,12.0,0.,12.0
1979-08-02 00:55:25.950 ,6,1,0.,12.0,0.,12.0,0.,12.0,0.,12.0
1979-08-02 00:55:37.950 ,6,0,0.,12.0,0.,12.0,0.,12.0,0.,12.0
1979-08-02 00:55:49.950 ,6,0,0.,12.0,0.,12.0,0.,12.0,0.,12.0
1979-08-02 00:56:01.950 ,5,1,1.,12.0,0.,12.0,0.,12.0,0.,12.0
1979-08-02 00:56:13.950 ,5,1,0.,12.0,0.,12.0,0.,12.0,0.,12.0
1979-08-02 00:56:25.950 ,5,0,0.,12.0,0.,12.0,0.,12.0,0.,12.0
1979-08-02 00:56:37.950 ,5,0,0.,12.0,0.,12.0,0.,12.0,0.,12.0
1979-08-02 00:56:49.950 ,4,1,0.,12.0,0.,12.0,0.,12.0,0.,12.0
1979-08-02 00:57:01.950 ,4,1,0.,12.0,0.,12.0,0.,12.0,0.,12.0
1979-08-02 00:57:13.950 ,4,0,0.,12.0,0.,12.0,0.,12.0,0.,12.0
1979-08-02 00:57:25.950 ,4,0,0.,12.0,0.,12.0,0.,12.0,0.,12.0
1979-08-02 00:57:37.950 ,3,1,0.,12.0,0.,12.0,0.,12.0,0.,12.0
1979-08-02 00:57:49.950 ,3,1,0.,12.0,0.,12.0,0.,12.0,0.,12.0
1979-08-02 00:58:01.950 ,3,0,0.,12.0,0.,12.0,0.,12.0,0.,12.0
1979-08-02 00:58:13.950 ,3,0,0.,12.0,0.,12.0,0.,12.0,0.,12.0
1979-08-02 00:58:25.950 ,2,1,0.,12.0,0.,12.0,0.,12.0,0.,12.0
1979-08-02 00:58:37.950 ,2,1,0.,12.0,0.,12.0,0.,12.0,1.,12.0
1979-08-02 00:58:49.950 ,2,0,0.,12.0,0.,12.0,0.,12.0,0.,12.0
1979-08-02 00:59:01.950 ,2,0,0.,12.0,0.,12.0,0.,12.0,0.,12.0
1979-08-02 00:59:13.950 ,1,1,0.,12.0,0.,12.0,0.,12.0,0.,12.0
1979-08-02 00:59:25.950 ,1,1,0.,12.0,0.,12.0,0.,12.0,0.,12.0
1979-08-02 00:59:37.950 ,1,0,0.,12.0,0.,12.0,0.,12.0,0.,12.0
1979-08-02 00:59:49.950 ,1,0,0.,12.0,0.,12.0,0.,12.0,0.,12.0
1979-08-02 01:00:01.950 ,0,1,0.,12.0,0.,12.0,0.,12.0,0.,12.0
1979-08-02 01:00:13.950 ,0,1,0.,12.0,0.,12.0,0.,12.0,0.,12.0
1979-08-02 01:00:25.950 ,0,0,0.,12.0,0.,12.0,0.,12.0,0.,12.0
1979-08-02 01:00:37.950 ,0,0,0.,12.0,0.,12.0,0.,12.0,0.,12.0
1979-08-02 01:00:49.950 ,0,1,0.,12.0,0.,12.0,0.,12.0,0.,12.0
1979-08-02 01:01:01.950 ,0,1,0.,12.0,0.,12.0,0.,12.0,0.,12.0
1979-08-02 01:01:13.950 ,0,0,0.,12.0,0.,12.0,0.,12.0,0.,12.0
1979-08-02 01:01:25.950 ,0,0,0.,12.0,0.,12.0,0.,12.0,0.,12.0
1979-08-02 01:01:37.950 ,1,1,0.,12.0,0.,12.0,0.,12.0,0.,12.0
1979-08-02 01:01:49.950 ,1,1,0.,12.0,0.,12.0,0.,12.0,0.,12.0
1979-08-02 01:02:01.950 ,1,0,0.,12.0,0.,12.0,0.,12.0,0.,12.0
1979-08-02 01:02:13.950 ,1,0,0.,12.0,0.,12.0,0.,12.0,0.,12.0
1979-08-02 01:02:25.950 ,2,1,0.,12.0,0.,12.0,0.,12.0,0.,12.0
1979-08-02 01:02:37.950 ,2,1,0.,12.0,0.,12.0,0.,12.0,0.,12.0
1979-08-02 01:02:49.950 ,2,0,0.,12.0,0.,12.0,0.,12.0,0.,12.0
1979-08-02 01:03:01.950 ,2,0,0.,12.0,0.,12.0,0.,12.0,0.,12.0
1979-08-02 01:03:13.950 ,3,1,0.,12.0,0.,12.0,0.,12.0,0.,12.0
1979-08-02 01:03:25.950 ,3,1,0.,12.0,0.,12.0,0.,12.0,0.,12.0
1979-08-02 01:03:37.950 ,3,0,0.,12.0,0.,12.0,0.,12.0,0.,12.0
1979-08-02 01:03:49.950 ,3,0,0.,12.0,0.,12.0,0.,12.0,0.,12.0
1979-08-02 01:04:01.950 ,4,1,0.,12.0,0.,12.0,0.,12.0,0.,12.0
1979-08-02 01:04:13.950 ,4,1,0.,12.0,0.,12.0,0.,12.0,0.,12.0
1979-08-02 01:04:25.950 ,4,0,0.,12.0,0.,12.0,0.,12.0,0.,12.0
1979-08-02 01:04:37.950 ,4,0,0.,12.0,0.,12.0,0.,12.0,0.,12.0
1979-08-02 01:04:49.950 ,5,1,0.,12.0,0.,12.0,0.,12.0,0.,12.0
1979-08-02 01:05:01.950 ,5,1,0.,12.0,0.,12.0,0.,12.0,0.,12.0
1979-08-02 01:05:13.950 ,5,0,0.,12.0,0.,12.0,0.,12.0,0.,12.0
1979-08-02 01:05:25.950 ,5,0,0.,12.0,0.,12.0,0.,12.0,0.,12.0
1979-08-02 01:05:37.950 ,6,1,0.,12.0,0.,12.0,0.,12.0,0.,12.0
1979-08-02 01:05:49.950 ,6,1,0.,12.0,0.,12.0,0.,12.0,0.,12.0
1979-08-02 01:06:01.950 ,6,0,0.,12.0,0.,12.0,0.,12.0,0.,12.0
1979-08-02 01:06:13.950 ,6,0,0.,12.0,0.,12.0,0.,12.0,0.,12.0
1979-08-02 01:06:25.950 ,7,0,0.,12.0,0.,12.0,0.,12.0,0.,12.0
1979-08-02 01:06:37.950 ,7,0,0.,12.0,0.,12.0,0.,12.0,0.,12.0
1979-08-02 01:06:49.950 ,7,0,0.,12.0,0.,12.0,0.,12.0,0.,12.0
1979-08-02 01:07:01.950 ,7,0,0.,12.0,0.,12.0,0.,12.0,0.,12.0
1979-08-02 01:07:13.950 ,4,1,0.,12.0,0.,12.0,0.,12.0,0.,12.0
1979-08-02 01:07:25.950 ,4,1,0.,12.0,0.,12.0,0.,12.0,0.,12.0
1979-08-02 01:07:37.950 ,0,1,0.,12.0,0.,12.0,0.,12.0,0.,12.0
1979-08-02 01:07:49.950 ,0,1,0.,12.0,0.,12.0,0.,12.0,0.,12.0
1979-08-02 01:08:01.950 ,3,1,0.,12.0,0.,12.0,0.,12.0,0.,12.0
1979-08-02 01:08:13.950 ,3,1,0.,12.0,0.,12.0,0.,12.0,0.,12.0
1979-08-02 01:08:25.950 ,7,1,0.,12.0,0.,12.0,0.,12.0,0.,12.0
1979-08-02 01:08:37.950 ,7,1,0.,12.0,0.,12.0,0.,12.0,0.,12.0
1979-08-02 01:08:49.950 ,4,1,0.,12.0,0.,12.0,0.,12.0,0.,12.0
1979-08-02 01:09:01.950 ,4,1,0.,12.0,0.,12.0,0.,12.0,0.,12.0
1979-08-02 01:09:13.950 ,0,1,0.,12.0,0.,12.0,0.,12.0,0.,12.0
1979-08-02 01:09:25.950 ,0,1,0.,12.0,0.,12.0,0.,12.0,0.,12.0
1979-08-02 01:09:37.950 ,3,1,0.,12.0,0.,12.0,0.,12.0,0.,12.0
1979-08-02 01:09:49.950 ,3,1,0.,12.0,0.,12.0,0.,12.0,0.,12.0
1979-08-02 01:10:01.950 ,7,1,0.,12.0,0.,12.0,0.,12.0,0.,12.0
1979-08-02 01:10:13.950 ,7,1,0.,12.0,0.,12.0,0.,12.0,0.,12.0
1979-08-02 01:10:25.950 ,4,1,0.,12.0,0.,12.0,0.,12.0,0.,12.0
1979-08-02 01:10:37.950 ,4,1,0.,12.0,0.,12.0,0.,12.0,0.,12.0
1979-08-02 01:10:49.950 ,0,1,0.,12.0,0.,12.0,0.,12.0,0.,12.0
1979-08-02 01:11:01.950 ,0,1,0.,12.0,0.,12.0,0.,12.0,0.,12.0
1979-08-02 01:11:13.950 ,3,1,0.,12.0,0.,12.0,0.,12.0,0.,12.0
1979-08-02 01:11:25.950 ,3,1,0.,12.0,0.,12.0,0.,12.0,0.,12.0
1979-08-02 01:11:37.950 ,7,1,0.,12.0,0.,12.0,0.,12.0,0.,12.0
1979-08-02 01:11:49.950 ,7,1,0.,12.0,0.,12.0,0.,12.0,0.,12.0
1979-08-02 01:12:01.950 ,4,1,0.,12.0,0.,12.0,0.,12.0,0.,12.0
1979-08-02 01:12:13.950 ,4,1,0.,12.0,0.,12.0,0.,12.0,0.,12.0
1979-08-02 01:12:25.950 ,0,1,0.,12.0,0.,12.0,0.,12.0,0.,12.0
1979-08-02 01:12:37.950 ,0,1,0.,12.0,0.,12.0,0.,12.0,0.,12.0
1979-08-02 01:12:49.950 ,3,1,0.,12.0,0.,12.0,0.,12.0,0.,12.0
1979-08-02 01:13:01.950 ,3,1,0.,12.0,0.,12.0,0.,12.0,0.,12.0
1979-08-02 01:13:13.950 ,7,1,0.,12.0,0.,12.0,0.,12.0,0.,12.0
1979-08-02 01:13:25.950 ,7,1,0.,12.0,0.,12.0,0.,12.0,0.,12.0
1979-08-02 01:13:37.950 ,4,1,0.,12.0,0.,12.0,0.,12.0,0.,12.0
1979-08-02 01:13:49.950 ,4,1,0.,12.0,0.,12.0,0.,12.0,0.,12.0
1979-08-02 01:14:01.950 ,0,1,0.,12.0,0.,12.0,0.,12.0,0.,12.0
1979-08-02 01:14:13.950 ,0,1,0.,12.0,0.,12.0,0.,12.0,0.,12.0
1979-08-02 01:14:25.950 ,3,1,0.,12.0,0.,12.0,0.,12.0,0.,12.0
1979-08-02 01:14:37.950 ,3,1,0.,12.0,0.,12.0,0.,12.0,0.,12.0
1979-08-02 01:14:49.950 ,7,1,0.,12.0,0.,12.0,0.,12.0,0.,12.0
1979-08-02 01:15:01.950 ,7,1,0.,12.0,0.,12.0,0.,12.0,0.,12.0
1979-08-02 01:15:13.950 ,4,1,0.,12.0,0.,12.0,0.,12.0,0.,12.0
1979-08-02 01:15:25.950 ,4,1,0.,12.0,0.,12.0,0.,12.0,0.,12.0
1979-08-02 01:15:37.950 ,0,1,0.,12.0,0.,12.0,0.,12.0,0.,12.0
1979-08-02 01:15:49.950 ,0,1,0.,12.0,0.,12.0,0.,12.0,0.,12.0
1979-08-02 01:16:01.950 ,3,1,0.,12.0,0.,12.0,0.,12.0,0.,12.0
1979-08-02 01:16:13.950 ,3,1,0.,12.0,0.,12.0,0.,12.0,0.,12.0
1979-08-02 01:16:25.950 ,7,1,0.,12.0,0.,12.0,0.,12.0,0.,12.0
1979-08-02 01:16:37.950 ,7,1,0.,12.0,0.,12.0,0.,12.0,0.,12.0
1979-08-02 01:16:49.950 ,4,1,0.,12.0,0.,12.0,0.,12.0,0.,12.0
1979-08-02 01:17:01.950 ,4,1,0.,12.0,0.,12.0,0.,12.0,0.,12.0
1979-08-02 01:17:13.950 ,0,1,0.,12.0,0.,12.0,0.,12.0,0.,12.0
1979-08-02 01:17:25.950 ,0,1,0.,12.0,0.,12.0,0.,12.0,0.,12.0
1979-08-02 01:17:37.950 ,0,0,0.,12.0,0.,12.0,0.,12.0,0.,12.0
1979-08-02 01:17:49.950 ,0,0,0.,12.0,0.,12.0,0.,12.0,0.,12.0
1979-08-02 01:18:01.950 ,0,0,0.,12.0,0.,12.0,0.,12.0,0.,12.0
1979-08-02 01:18:13.950 ,0,0,0.,12.0,0.,12.0,0.,12.0,0.,12.0
1979-08-02 01:18:25.950 ,5,1,0.,12.0,0.,12.0,0.,12.0,0.,12.0
1979-08-02 01:18:37.950 ,5,1,0.,12.0,0.,12.0,0.,12.0,0.,12.0
1979-08-02 01:18:49.950 ,5,0,0.,12.0,0.,12.0,0.,12.0,0.,12.0
1979-08-02 01:19:01.950 ,5,0,0.,12.0,0.,12.0,0.,12.0,0.,12.0